Weather Roundup
Issued by NWS Chicago, IL

Home | Current Version | Previous Version | Graphics & Text | Print | Product List | Glossary On
Versions: 1 2 3 4 5 6 7 8 9 10 11 12 13 14 15 16 17 18 19 20 21 22 23 24 25 26 27 28 29 30 31 32 33 34 35 36 37 38 39 40 41 42 43 44 45 46 47 48 49 50
000
NZUS59 KLOT 271400
HRRLOT

CHICAGO AREA WEATHER ROUNDUP
NATIONAL WEATHER SERVICE CHICAGO/ROMEOVILLE IL
800 AM CST TUE JAN 27 2015

NOTE: "FAIR" INDICATES FEW OR NO CLOUDS BELOW 12,000 FEET WITH NO
SIGNIFICANT WEATHER AND/OR OBSTRUCTIONS TO VISIBILITY.

* THESE STATIONS ARE NOT UNDER NWS QUALITY CONTROL. THEY ALSO MAY NOT
  REPORT WEATHER SUCH AS PRECIPITATION OR FOG.

ILZ005-006-012>014-019>023-271500-
NORTHEAST ILLINOIS

CITY           SKY/WX    TMP DP  RH WIND       PRES   REMARKS
OHARE          CLOUDY    28  24  85 NE9       30.07R WCI  19
MIDWAY         CLOUDY    30  23  75 NE10      30.09R WCI  21
AURORA         CLOUDY    28  23  81 N7        30.08R HAZE    WCI  21
WAUKEGAN       CLOUDY    28  20  71 NE6       30.09R WCI  22
DUPAGE AIRPORT CLOUDY    27  24  89 N7        30.07R FOG     WCI  19
WHEELING       CLOUDY    28  22  78 NE5       30.10R WCI  23
NORTHERLY IS     N/A     28  21  75 NE12        N/A  WCI  18
$$

WIZ051-052-058>065-066-070>072-271500-
SOUTHEAST WISCONSIN

CITY           SKY/WX    TMP DP  RH WIND       PRES   REMARKS
MILWAUKEE      MOCLDY    28  19  69 NE12      30.12R WCI  18
KENOSHA*       CLOUDY    28  21  75 NE8       30.10R WCI  20
RACINE*        CLOUDY    28  19  69 NE8       30.12R WCI  20
WAUKESHA       CLOUDY    25  21  86 E7        30.11R WCI  17
$$

INZ001>003-010>013-019-020-271500-
NORTHWEST INDIANA

CITY           SKY/WX    TMP DP  RH WIND       PRES   REMARKS
GARY*          CLOUDY    28  18  64 NE8       30.09R WCI  20
MICHIGAN CITY* NOT AVBL
RENSSELAER*    NOT AVBL
$$

LMZ740>746-271500-
SOUTHERN LAKE MICHIGAN

STATION/POSITION TIME  SKY/WX   TEMP WIND        PRES    VSBY
                                AIR  DIR/SP/G
                 (UTC)          (F)  (DEG/KT/KT) (MB)    (MI)
HARRISON CRIB    1300            27   60/ 12/ 13   N/A
BURNHAM HARBOR   1400            28   50/ 10       N/A
CALUMET HARBOR   1300            28   50/  9/ 13   N/A
BURNS HARBOR     NOT AVBL
MICHIGAN CITY    1300            23   60/  4/  5   N/A
$$

ABBREVIATIONS USED IN REMARKS
   TC - TEMPERATURE IN CELSIUS
  WCI - WIND CHILL INDEX
   HX - HEAT INDEX
  VSB - VISIBILITY
$$



USA.gov is the U.S. government's official web portal to all federal, state and local government web resources and services.